Regional Weather Roundup
Issued by NWS

Home | Current Version | Previous Version | Graphics & Text | Print | Product List | Glossary Off
Versions: 1 2 3 4 5 6 7 8 9 10 11 12 13 14 15 16 17 18 19 20 21 22 23 24 25 26 27 28 29 30 31 32 33 34 35 36 37 38 39 40 41 42 43 44 45 46 47 48 49 50

885
ASUS43 KFSD 250302
RWRSD

WEATHER ROUNDUP FOR SOUTH DAKOTA
NATIONAL WEATHER SERVICE SIOUX FALLS SD
900 PM CST FRI FEB 24 2017

NOTE: "FAIR" INDICATES FEW OR NO CLOUDS BELOW 12,000 FEET WITH NO
SIGNIFICANT WEATHER AND/OR OBSTRUCTIONS TO VISIBILITY.


SDZ001>005-009-010-012>017-250400-
NORTHWEST AND NORTH CENTRAL SOUTH DAKOTA

CITY           SKY/WX    TMP DP  RH WIND       PRES   REMARKS
BUFFALO          N/A     26  14  60 S6        29.96F WCI  19
FAITH            N/A     23  16  74 SE6       30.07S WCI  16
MOBRIDGE       CLEAR     23  14  68 MISG      30.08S
$$

SDZ012>016-024>037-041>051-057-063-072>074-250400-
SOUTHWEST AND SOUTH CENTRAL SOUTH DAKOTA

CITY           SKY/WX    TMP DP  RH WIND       PRES   REMARKS
RAPID CTY ARPT CLOUDY    17  13  84 SW3       30.05S
PIERRE         CLEAR     19  12  74 W6        30.12S WCI  11
CUSTER         CLOUDY    10   6  84 W3        29.92S
ELLSWORTH AFB  CLOUDY    19  15  86 S7        30.04S WCI   9
PHILIP         CLOUDY    19  12  74 E3        30.11R
PINE RIDGE     CLOUDY     9   7  92 W3        30.07S
SPEARFISH      FAIR      21  16  79 SW9       30.00F WCI  11
WINNER         FAIR      18  11  74 NW7       30.12R WCI   9
$$

SDZ004>011-016>023-039-040-250400-
NORTHEAST SOUTH DAKOTA

CITY           SKY/WX    TMP DP  RH WIND       PRES   REMARKS
ABERDEEN       CLEAR     20  14  77 NW10      30.12S WCI   9
WATERTOWN      CLOUDY    18  13  80 N15       30.03R WCI   4
BROOKINGS      CLOUDY    20  13  74 N17       30.02R WCI   5
SISSETON         N/A     19  16  88 N13       30.07R WCI   6
$$

SDZ017-020-022-023-036>040-048>070-250400-
SOUTHEAST SOUTH DAKOTA

CITY           SKY/WX    TMP DP  RH WIND       PRES   REMARKS
SIOUX FALLS    MOCLDY    22  14  71 N21       30.03R WCI   6
HURON          CLEAR     22  16  78 N15       30.11R WCI   9
CHAMBERLAIN    CLEAR     27  16  62 N9        30.12R WCI  18
MITCHELL       CLOUDY    25  17  72 N21       30.11R WCI  11
YANKTON        CLEAR     25  14  63 NW17      30.07R WCI  11
$$

ABBREVIATIONS USED IN REMARKS
   TC - TEMPERATURE IN CELSIUS
  WCI - WIND CHILL INDEX
   HX - HEAT INDEX
  VSB - VISIBILITY





USA.gov is the U.S. government's official web portal to all federal, state and local government web resources and services.